Location: Unspecified
(17.6330°N, 0.0000°E)
Time: 16:53:43
(UTC+00:00)

Courier 1B Rocket - Pass Details

Date: 02 July 2019
Orbit: 920 x 1202 km, 28.2° (Epoch: 19 October)

Event Time Altitude Azimuth Distance (km) Brightness Sun altitude
Exits shadow 03:04:06 17° 307° (NW) 2,544 7.0 -30.1°
Maximum altitude 03:09:17 38° 6° (N) 1,628 6.4 -29.1°
Drops below altitude 10° 03:15:48 10° 73° (ENE) 2,874 8.3 -27.9°
Sets 03:18:40 0° 81° (E) 3,782 9.0 -27.4°
